sat.trackr.live / text

‹ back to catalog

CARBONITE 1 (CBNT-1)

NORAD 40718 · 2015-032D

PAYLOAD ACTIVE UNKNOWN

§ Identity

Operator
Country
UK
Launch date
2015-07-10
Launch site
SRILR
Launch vehicle
Mass (kg)
RCS (m²)
0.50

Purposes: earth_obs

External: N2YO · Heavens-Above · Gunter

§ Orbital elements

Epoch: 2026-09-20T04:55:23.942208Z

Period
97.05 min
Inclination
97.6573°
Eccentricity
0.0014248
Mean motion
14.83833057 rev/d
Perigee alt
607.3 km
Apogee alt
627.2 km
Semi-major
6,995.4 km
B*
1.0640e-4
RAAN
77.3496°
Arg perigee
348.8045°
Mean anomaly
11.2850°
Rev number
60,343

§ Raw data

CARBONITE 1 (CBNT-1)1 40718U 15032D   26263.20513822  .00000832  00000+0  10640-3 0  99992 40718  97.6573  77.3496 0014248 348.8045  11.2850 14.83833057603431

JSON: /api/v1/satellites/40718 · /tle

For live sub-satellite position, see the globe view (requires WebGL).

§ Visibility from observer

Set your observer location to see the next 7 days of passes ≥ 10°. The values pass through the URL so the page stays shareable.

No JS? Fill the form by hand. The geolocation button needs JavaScript.

§ Radio — SatNOGS DB

ModeDescriptionDownlinkUplink
BPSK Telemetry 2.240 GHz

1 transmitter · refreshed weekly from db.satnogs.org